Articles

IAA

Share

Share

Trim Flying Club goes to the Aran Islands

Learn to fly at Trim Flying Club

Rainfall Radar Now

Atlantic Charts Pressure - Today

Atlantic Charts Rainfall - Today

 
 

Atlantic Charts Pressure - Tomorrow

Sunrise Sunset

Click for Dublin, Ireland Forecast

Aviation WX Dublin EIDW

[source: ADDS]
METAR
EIDW 242230Z VRB03KT 9999 FEW030 16/13 Q1019 NOSIG =
TAF
TAF EIDW 241700Z 2418/2518 07008KT 9999 FEW030 BECMG 2419/2421 VRB03KT PROB30 TEMPO 2502/2508 3000 BR SCT003 BECMG 2505/2508 08008KT =